TimeEST,TemperatureF,Dew PointF,Humidity,Sea Level PressureIn,VisibilityMPH,Wind Direction,Wind SpeedMPH,Gust SpeedMPH,PrecipitationIn,Events,Conditions,WindDirDegrees,DateUTC
12:53 AM,48.0,45.0,89,30.04,6.0,Calm,Calm,-,N/A,,Overcast,0,2012-12-09 05:53:00
1:53 AM,46.9,44.1,90,30.06,5.0,Calm,Calm,-,N/A,,Mostly Cloudy,0,2012-12-09 06:53:00
2:53 AM,45.0,43.0,93,30.06,3.0,Calm,Calm,-,N/A,,Clear,0,2012-12-09 07:53:00
3:03 AM,44.6,42.8,93,30.06,2.5,Calm,Calm,-,N/A,,Partly Cloudy,0,2012-12-09 08:03:00
3:50 AM,46.4,44.6,93,30.07,3.0,Calm,Calm,-,N/A,,Overcast,0,2012-12-09 08:50:00
3:53 AM,46.0,44.1,93,30.08,3.0,Calm,Calm,-,N/A,,Overcast,0,2012-12-09 08:53:00
4:40 AM,46.4,44.6,93,30.08,2.5,Calm,Calm,-,0.02,Rain,Light Rain,0,2012-12-09 09:40:00
4:53 AM,46.9,45.0,93,30.09,2.5,Calm,Calm,-,0.03,Rain,Light Rain,0,2012-12-09 09:53:00
5:53 AM,46.9,46.0,97,30.12,1.8,Calm,Calm,-,0.06,Rain,Light Rain,0,2012-12-09 10:53:00
6:30 AM,46.4,46.4,100,30.13,2.0,Calm,Calm,-,0.07,Rain,Rain,0,2012-12-09 11:30:00
6:53 AM,46.9,46.0,97,30.15,2.0,North,3.5,-,0.11,Rain,Light Rain,350,2012-12-09 11:53:00
7:07 AM,48.2,46.4,93,30.15,3.0,North,3.5,-,0.01,Rain,Light Rain,360,2012-12-09 12:07:00
7:53 AM,48.0,45.0,89,30.16,4.0,NNE,4.6,-,0.06,Rain,Light Rain,20,2012-12-09 12:53:00
8:15 AM,48.2,46.4,93,30.16,2.5,NNE,4.6,-,0.01,Rain,Light Rain,30,2012-12-09 13:15:00
8:22 AM,48.2,46.4,93,30.16,3.0,NE,4.6,-,0.02,Rain,Light Rain,40,2012-12-09 13:22:00
8:37 AM,46.4,46.4,100,30.17,2.0,ENE,3.5,-,0.03,Rain,Light Rain,60,2012-12-09 13:37:00
8:53 AM,46.9,46.0,97,30.18,1.8,Calm,Calm,-,0.05,Rain,Light Rain,0,2012-12-09 13:53:00
9:12 AM,48.2,46.4,93,30.18,2.0,NE,3.5,-,0.01,Rain,Light Rain,40,2012-12-09 14:12:00
9:43 AM,48.2,46.4,93,30.19,1.5,NNW,3.5,-,0.03,Rain,Light Rain,340,2012-12-09 14:43:00
9:53 AM,48.0,46.0,93,30.19,1.5,North,4.6,-,0.04,Rain,Light Rain,360,2012-12-09 14:53:00
10:00 AM,48.2,46.4,93,30.18,1.8,NNE,4.6,-,0.00,Rain,Light Rain,20,2012-12-09 15:00:00
10:09 AM,48.2,46.4,93,30.18,2.0,NNE,4.6,-,0.00,Rain,Light Rain,30,2012-12-09 15:09:00
10:23 AM,48.2,46.4,93,30.19,2.0,North,4.6,-,0.01,Rain,Light Rain,360,2012-12-09 15:23:00
10:35 AM,48.2,44.6,87,30.18,3.0,NNE,4.6,-,0.01,,Overcast,20,2012-12-09 15:35:00
10:46 AM,48.2,46.4,93,30.18,2.0,NNE,3.5,-,0.01,Rain,Light Rain,20,2012-12-09 15:46:00
10:53 AM,46.9,46.0,97,30.18,1.5,North,3.5,-,0.01,Rain,Light Rain,10,2012-12-09 15:53:00
11:14 AM,46.4,46.4,100,30.17,1.8,North,3.5,-,0.02,Rain,Light Rain,10,2012-12-09 16:14:00
11:43 AM,46.4,44.6,93,30.16,2.0,North,5.8,-,0.02,Rain,Light Rain,360,2012-12-09 16:43:00
11:53 AM,46.9,45.0,93,30.16,2.0,NNE,5.8,-,0.03,Rain,Light Rain,30,2012-12-09 16:53:00
12:17 PM,46.4,44.6,93,30.14,3.0,North,5.8,-,0.00,,Overcast,10,2012-12-09 17:17:00
12:53 PM,46.0,44.1,93,30.14,3.0,North,5.8,-,0.00,,Overcast,360,2012-12-09 17:53:00
1:03 PM,44.6,42.8,93,30.13,2.5,North,5.8,-,N/A,,Overcast,360,2012-12-09 18:03:00
1:36 PM,44.6,42.8,93,30.12,1.5,North,5.8,-,N/A,,Overcast,10,2012-12-09 18:36:00
1:53 PM,45.0,43.0,93,30.13,1.0,North,4.6,-,0.01,,Overcast,360,2012-12-09 18:53:00
2:53 PM,45.0,43.0,93,30.13,1.0,NNE,5.8,-,N/A,,Overcast,20,2012-12-09 19:53:00
3:51 PM,44.6,42.8,93,30.10,0.8,NNE,4.6,-,N/A,,Overcast,20,2012-12-09 20:51:00
3:53 PM,45.0,43.0,93,30.10,0.8,NNE,4.6,-,N/A,,Overcast,20,2012-12-09 20:53:00
4:06 PM,44.6,42.8,93,30.10,1.0,North,3.5,-,0.01,Rain,Light Rain,360,2012-12-09 21:06:00
4:20 PM,44.6,42.8,93,30.10,1.0,North,3.5,-,0.01,Rain,Light Rain,350,2012-12-09 21:20:00
4:53 PM,45.0,43.0,93,30.10,1.5,Calm,Calm,-,0.01,,Overcast,0,2012-12-09 21:53:00
4:58 PM,44.6,44.6,100,30.09,2.0,Calm,Calm,-,N/A,,Overcast,0,2012-12-09 21:58:00
5:21 PM,44.6,42.8,93,30.09,1.8,Calm,Calm,-,N/A,,Overcast,0,2012-12-09 22:21:00
5:53 PM,45.0,44.1,97,30.09,2.5,Calm,Calm,-,N/A,,Overcast,0,2012-12-09 22:53:00
6:09 PM,44.6,44.6,100,30.09,3.0,Calm,Calm,-,N/A,,Overcast,0,2012-12-09 23:09:00
6:29 PM,44.6,44.6,100,30.08,2.5,East,4.6,-,N/A,,Overcast,90,2012-12-09 23:29:00
6:53 PM,46.0,44.1,93,30.10,2.0,Calm,Calm,-,0.00,,Overcast,0,2012-12-09 23:53:00
7:02 PM,44.6,44.6,100,30.09,1.5,ENE,3.5,-,N/A,,Overcast,70,2012-12-10 00:02:00
7:53 PM,45.0,44.1,97,30.07,1.5,East,3.5,-,0.00,Rain,Light Rain,100,2012-12-10 00:53:00
8:05 PM,44.6,44.6,100,30.06,2.0,Calm,Calm,-,0.00,Rain,Light Rain,0,2012-12-10 01:05:00
8:35 PM,46.4,44.6,93,30.05,3.0,Calm,Calm,-,0.00,Rain,Light Rain,0,2012-12-10 01:35:00
8:43 PM,46.4,44.6,93,30.05,2.0,Calm,Calm,-,0.00,Rain,Light Rain,0,2012-12-10 01:43:00
8:53 PM,46.0,44.1,93,30.05,2.0,Calm,Calm,-,0.00,,Overcast,0,2012-12-10 01:53:00
9:00 PM,46.4,44.6,93,30.04,1.5,Calm,Calm,-,N/A,,Overcast,0,2012-12-10 02:00:00
9:26 PM,46.4,44.6,93,30.03,0.8,Calm,Calm,-,0.00,Rain,Light Rain,0,2012-12-10 02:26:00
9:53 PM,46.0,44.1,93,30.02,0.5,NE,3.5,-,0.00,Fog,Fog,40,2012-12-10 02:53:00
10:53 PM,46.0,45.0,96,29.99,0.5,Calm,Calm,-,N/A,Fog,Fog,0,2012-12-10 03:53:00
11:42 PM,46.4,44.6,93,29.96,1.5,Calm,Calm,-,N/A,,Overcast,0,2012-12-10 04:42:00
11:53 PM,46.0,45.0,96,29.96,2.5,Calm,Calm,-,N/A,,Overcast,0,2012-12-10 04:53:00